Location: Unspecified
(0.0000°N, 0.0000°E)
Time: 13:37:01
(UTC+00:00)

Hubble Space Telescope - Pass Details

Date: 20 June 2021
Orbit: 535 x 539 km, 28.5° (Epoch: 18 June)

Event Time Altitude Azimuth Distance (km) Brightness Sun altitude
Rises 19:57:44 0° 314° (NW) 2,658 5.5 -26.4°
Reaches altitude 10° 20:00:07 10° 323° (NW) 1,771 4.2 -26.9°
Enters shadow 20:02:29 27° 350° (N) 1,041 2.5 -27.5°
